Weather reports worldwide

Advertisment
Greifswalder Oie, Germany (10097): temperature & dewpoint: 16.06.2018 15:00:00 - 22.06.2018 15:00:00 (CEST)Greifswalder Oie, Germany (10097): temperature 5cm & temperature -5cm: 16.06.2018 15:00:00 - 22.06.2018 15:00:00 (CEST)Greifswalder Oie, Germany (10097): temperature -20cm & temperature -100cm: 16.06.2018 15:00:00 - 22.06.2018 15:00:00 (CEST)Greifswalder Oie, Germany (10097): water temperature: 16.06.2018 15:00:00 - 22.06.2018 15:00:00 (CEST)Greifswalder Oie, Germany (10097): wind speed & gusts: 16.06.2018 15:00:00 - 22.06.2018 15:00:00 (CEST)Greifswalder Oie, Germany (10097): wind direction: 16.06.2018 15:00:00 - 22.06.2018 15:00:00 (CEST)Greifswalder Oie, Germany (10097): reduced air pressure: 16.06.2018 15:00:00 - 22.06.2018 15:00:00 (CEST)Greifswalder Oie, Germany (10097): visibility: 16.06.2018 15:00:00 - 22.06.2018 15:00:00 (CEST)Greifswalder Oie, Germany (10097): sunshine duration: 16.06.2018 15:00:00 - 22.06.2018 15:00:00 (CEST)Greifswalder Oie, Germany (10097): precipitation: 16.06.2018 15:00:00 - 22.06.2018 15:00:00 (CEST)
Date & Time tt [°C] td [°C] tt 5cm [°C] tt -5cm [°C] tt -20cm [°C] tt -100cm [°C] tw [°C] ff [km/h] ff [kn] fx [km/h] fx [kn] dd ppp [hPa] vv [km] sd [min] rr [mm]
22.06.2018 15:00:00 16,7 8,5 19,3 19,6 16,5 16,7 17,4 35 19 45 25 W 1014,1 7 60 0,0
22.06.2018 14:00:00 16,4 8,7 18,5 18,0 16,1 16,7 17,2 35 19 44 24 W 1013,8 6 59 0,0
22.06.2018 13:00:00 15,9 9,0 17,2 16,6 15,8 16,8 17,0 37 20 48 26 WNW 1013,6 9 59 0,0
22.06.2018 12:00:00 15,3 8,8 16,3 15,2 15,6 16,8 16,9 43 23 54 29 WNW 1013,3 8 28 0,0
22.06.2018 11:00:00 14,4 9,1 15,2 14,6 15,5 16,8 16,7 44 24 54 29 W 1012,7 15 10 0,1
22.06.2018 10:00:00 13,6 9,7 14,7 14,3 15,4 16,8 16,6 44 24 58 31 W 1012,1 5 25 0,0
22.06.2018 09:00:00 12,5 10,0 13,2 13,7 15,4 16,8 16,5 49 26 61 33 WSW 1011,6 7 37 0,0
22.06.2018 08:00:00 12,0 9,7 12,7 13,0 15,4 16,8 16,4 51 27 63 34 WSW 1010,8 9 54 0,0
22.06.2018 07:00:00 11,5 9,5 11,5 12,5 15,5 16,8 16,4 52 28 64 35 WSW 1010,3 9 19 0,0
22.06.2018 06:00:00 11,4 9,9 11,0 12,3 15,7 16,8 16,5 47 26 70 38 WSW 1010,6 20 11 0,0
22.06.2018 05:00:00 11,4 9,6 10,4 12,4 15,9 16,8 16,5 56 30 72 39 WSW 1010,3 17 0 0,1
22.06.2018 04:00:00 11,7 9,7 10,6 12,5 16,1 16,8 16,6 56 30 74 40 WSW 1010,2 20 0 0,3
22.06.2018 03:00:00 12,1 9,0 11,5 12,5 16,3 16,8 16,8 54 29 71 38 WSW 1010,3 19 0 0,0
22.06.2018 02:00:00 12,4 9,4 11,7 12,7 16,6 16,8 17,0 55 30 66 36 WSW 1010,3 20 0 0,0
22.06.2018 01:00:00 13,0 8,7 12,2 12,9 16,8 16,8 17,1 51 27 65 35 W 1010,5 20 0 0,0
22.06.2018 00:00:00 13,0 9,2 12,2 13,2 17,1 16,8 17,5 51 28 67 36 W 1010,6 21 0 0,0
21.06.2018 23:00:00 13,5 10,4 12,7 13,5 17,4 16,8 17,4 53 29 69 38 W 1010,2 21 0 0,0
21.06.2018 22:00:00 13,3 10,0 12,6 13,7 17,7 16,8 17,9 55 30 73 40 W 1010,1 22 4 0,0
21.06.2018 21:00:00 13,2 9,9 12,6 14,1 18,0 16,8 18,2 58 31 73 39 W 1009,7 24 50 0,0
21.06.2018 20:00:00 13,2 9,9 12,7 14,4 18,3 16,8 18,4 55 30 73 39 W 1009,8 19 19 0,4
21.06.2018 19:00:00 12,1 8,5 11,2 14,8 18,6 16,8 18,3 59 32 74 40 WNW 1009,3 13 0 1,7
21.06.2018 18:00:00 13,4 10,0 13,1 15,6 18,9 16,8 18,6 50 27 66 36 W 1007,9 21 5 0,1
21.06.2018 17:00:00 13,2 10,7 12,7 16,1 19,1 16,8 18,5 53 29 86 46 W 1007,7 10 0 0,8
21.06.2018 16:00:00 14,3 11,5 14,0 17,1 19,4 16,8 18,9 34 19 50 27 WSW 1007,4 14 1 0,0
21.06.2018 15:00:00 14,3 10,1 14,4 16,3 19,7 16,8 18,9 40 21 52 28 W 1007,4 12 0 0,1
21.06.2018 14:00:00 13,5 11,7 12,7 16,7 20,1 16,8 19,0 37 20 49 27 W 1008,0 9 0 1,4
21.06.2018 13:00:00 13,1 11,9 12,9 17,3 20,4 16,8 19,1 26 14 49 26 WNW 1007,7 7 0 1,4
21.06.2018 12:00:00 12,8 12,0 12,8 18,8 20,7 16,8 19,2 39 21 55 30 NW 1008,0 4,9 0 2,0
21.06.2018 11:00:00 14,6 13,7 14,5 20,7 20,7 16,8 19,4 48 26 60 33 NW 1007,5 12 0 1,0
21.06.2018 10:00:00 19,7 15,5 21,8 22,4 20,5 16,8 19,7 8 5 22 12 SSW 1006,4 13 14 0,0
21.06.2018 09:00:00 19,3 15,4 21,5 21,2 20,4 16,8 19,4 19 10 28 15 SW 1007,8 12 44 0,0
21.06.2018 08:00:00 18,8 15,5 21,2 20,0 20,5 16,8 19,3 22 12 30 16 SW 1009,0 7 59 0,0
21.06.2018 07:00:00 18,4 15,7 19,2 19,4 20,7 16,7 19,4 24 13 33 18 WSW 1009,5 8 53 0,0
21.06.2018 06:00:00 17,8 16,2 17,3 19,3 20,9 16,7 19,6 17 9 22 12 SW 1010,1 6 0 0,0
21.06.2018 05:00:00 17,6 15,9 16,2 19,6 21,1 16,7 19,8 16 8 21 11 SSW 1010,6 6 0 0,0
21.06.2018 04:00:00 18,7 16,4 17,3 19,9 21,4 16,7 19,9 16 9 21 11 WSW 1011,4 9 0 0,0
21.06.2018 03:00:00 18,7 16,3 17,6 20,4 21,6 16,7 19,7 16 9 26 14 W 1012,2 11 0 0,0
21.06.2018 02:00:00 19,1 16,4 18,5 20,8 21,9 16,7 19,7 19 10 24 13 W 1012,8 11 0 0,0
21.06.2018 01:00:00 20,1 16,5 19,1 21,2 22,1 16,7 20,7 22 12 30 16 W 1013,3 11 0 0,0
21.06.2018 00:00:00 19,9 15,8 18,6 21,7 22,4 16,7 21,1 22 12 28 15 SSW 1013,4 13 0 0,0
20.06.2018 23:00:00 20,4 15,6 19,0 22,4 22,7 16,7 21,5 24 13 27 14 SSW 1014,0 15 0 0,0
20.06.2018 22:00:00 21,3 15,7 20,0 23,4 22,9 16,7 21,7 23 13 25 14 SSW 1014,4 18 7 0,0
20.06.2018 21:00:00 21,5 16,7 20,6 24,8 23,0 16,7 21,8 17 9 26 14 SW 1014,6 13 60 0,0
20.06.2018 20:00:00 22,3 16,7 24,4 26,2 23,0 16,7 21,8 18 10 29 16 SW 1015,1 19 57 0,0
20.06.2018 19:00:00 23,2 16,5 25,9 26,8 22,8 16,7 22,3 20 11 36 20 WSW 1015,9 10 43 0,0
20.06.2018 18:00:00 23,4 15,9 26,0 27,5 22,6 16,7 22,4 27 15 41 22 WSW 1016,6 7 59 0,0
20.06.2018 17:00:00 23,2 16,4 26,1 27,1 22,3 16,7 22,3 29 16 40 21 SW 1017,1 15 44 0,0
20.06.2018 16:00:00 22,6 15,6 24,3 26,7 22,1 16,7 21,9 29 16 42 23 SW 1017,7 11 16 0,0
20.06.2018 15:00:00 22,3 15,3 24,7 27,1 21,6 16,7 21,7 27 15 35 19 SW 1018,3 18 19 0,0
20.06.2018 14:00:00 22,2 15,7 24,7 27,4 21,0 16,7 20,9 21 11 28 15 WSW 1019,0 14 44 0,0
20.06.2018 13:00:00 22,7 15,3 26,7 26,5 20,3 16,7 20,5 19 10 31 17 WSW 1020,0 11 57 0,0
20.06.2018 12:00:00 22,2 14,4 27,0 24,4 19,8 16,7 19,9 16 9 25 14 WSW 1020,7 9 49 0,0
20.06.2018 11:00:00 20,3 12,4 24,7 22,2 19,4 16,7 19,3 19 10 23 12 SW 1021,2 9 46 0,0
20.06.2018 10:00:00 17,8 10,4 21,8 20,6 19,2 16,7 18,9 14 7 26 14 SW 1021,6 10 50 0,0
20.06.2018 09:00:00 16,7 11,8 19,9 19,0 19,1 16,7 18,8 19 10 28 15 WSW 1021,7 8 60 0,0
20.06.2018 08:00:00 15,9 12,1 18,5 17,8 19,2 16,7 18,7 20 11 30 16 W 1021,7 7 54 0,0
20.06.2018 07:00:00 15,4 11,7 16,1 17,5 19,4 16,7 18,8 24 13 37 20 W 1021,7 11 32 0,0
20.06.2018 06:00:00 15,6 11,9 15,7 17,5 19,6 16,7 18,8 29 16 40 21 WNW 1021,5 7 42 0,0
20.06.2018 05:00:00 15,6 11,4 15,0 17,6 19,8 16,7 18,8 33 18 42 23 W 1021,4 14 0 0,0
20.06.2018 04:00:00 15,5 11,3 15,1 17,9 20,1 16,7 19,0 33 18 43 23 WNW 1021,2 19 0 0,0
20.06.2018 03:00:00 16,1 11,4 15,5 18,3 20,3 16,7 19,1 34 18 41 22 W 1021,2 22 0 0,0
20.06.2018 02:00:00 16,2 11,9 15,5 18,6 20,6 16,7 19,2 29 16 41 22 WNW 1021,3 22 0 0,0
20.06.2018 01:00:00 16,6 11,3 16,0 19,1 20,9 16,7 19,3 36 19 45 24 WNW 1021,3 24 0 0,0
20.06.2018 00:00:00 17,1 11,6 16,6 19,6 21,2 16,7 19,3 36 20 45 24 WNW 1021,1 25 0 0,0
19.06.2018 23:00:00 17,4 12,0 16,9 20,3 21,5 16,7 19,5 33 18 41 22 WNW 1020,9 26 0 0,0
19.06.2018 22:00:00 18,1 12,6 17,6 21,1 21,7 16,7 19,5 33 18 47 25 W 1020,6 30 27 0,0
19.06.2018 21:00:00 18,8 12,6 18,4 22,3 21,9 16,7 19,6 40 22 45 25 WNW 1019,9 30 60 0,0
19.06.2018 20:00:00 20,0 14,2 20,9 23,7 21,9 16,7 19,7 35 19 43 23 WNW 1019,6 11 60 0,0
19.06.2018 19:00:00 20,7 14,9 21,7 24,5 21,7 16,7 19,8 37 20 45 25 WNW 1019,3 14 60 0,0
19.06.2018 18:00:00 21,1 15,0 22,8 24,7 21,6 16,7 20,2 29 16 40 22 WNW 1019,1 8 60 0,0
19.06.2018 17:00:00 20,5 15,8 23,0 24,3 21,4 16,7 20,3 28 15 38 21 W 1019,2 12 42 0,0
19.06.2018 16:00:00 20,4 15,2 22,6 24,0 21,2 16,7 20,2 30 16 42 23 W 1019,0 11 26 0,0
19.06.2018 15:00:00 20,2 15,0 21,2 24,2 21,0 16,7 20,5 29 16 37 20 W 1018,8 10 4 0,0
19.06.2018 14:00:00 20,9 15,0 23,9 24,7 20,6 16,7 20,2 29 16 36 19 W 1018,7 9 35 0,0
19.06.2018 13:00:00 19,5 13,9 21,9 24,1 20,2 16,7 19,9 30 16 46 25 W 1018,6 4,2 55 0,0
19.06.2018 12:00:00 19,1 14,6 21,1 21,8 20,0 16,7 19,4 38 21 52 28 W 1018,4 9 26 0,0
19.06.2018 11:00:00 19,0 13,7 20,5 21,3 19,8 16,7 19,2 37 20 44 24 WSW 1018,2 10 4 0,0
19.06.2018 10:00:00 18,4 14,0 19,5 20,1 19,8 16,7 19,0 35 19 45 24 WSW 1017,8 14 0 0,0
19.06.2018 09:00:00 18,1 13,7 19,5 19,5 19,8 16,7 18,9 33 18 42 23 WSW 1017,3 10 55 0,0
19.06.2018 08:00:00 17,2 14,0 18,9 18,7 19,9 16,7 18,7 34 18 46 25 WSW 1017,3 7 47 0,0
19.06.2018 07:00:00 16,7 14,3 16,0 18,7 20,0 16,7 18,6 37 20 64 35 WSW 1017,2 13 0 0,2
19.06.2018 06:00:00 17,2 15,3 17,2 19,0 20,2 16,7 18,7 35 19 43 23 WSW 1016,7 10 0 0,0
19.06.2018 05:00:00 17,6 15,0 16,9 19,1 20,4 16,7 19,1 37 20 45 24 WSW 1016,5 17 0 0,0
19.06.2018 04:00:00 17,7 15,0 17,6 19,4 20,5 16,7 19,3 35 19 45 24 WSW 1016,6 20 0 0,0
19.06.2018 03:00:00 17,5 15,6 17,4 19,7 20,7 16,7 19,5 37 20 50 27 WNW 1016,7 23 0 0,0
19.06.2018 02:00:00 18,6 14,5 18,4 19,8 20,9 16,7 19,9 27 15 32 18 SSW 1016,5 24 0 0,0
19.06.2018 01:00:00 18,8 14,7 18,3 19,8 21,1 16,7 19,6 21 12 25 13 SSW 1016,7 24 0 0,0
19.06.2018 00:00:00 18,2 14,8 15,8 20,2 21,4 16,7 19,4 8 5 15 8 S 1017,1 21 0 0,0
18.06.2018 23:00:00 17,3 14,7 12,8 21,0 21,6 16,7 19,5 3 2 8 4 N 1017,6 18 0 0,0
18.06.2018 22:00:00 17,9 14,8 16,5 21,8 21,8 16,7 19,6 6 3 9 5 NNW 1017,5 22 0 0,0
18.06.2018 21:00:00 19,3 15,7 19,2 22,5 21,9 16,7 19,9 6 3 17 9 WNW 1017,1 22 0 0,0
18.06.2018 20:00:00 20,0 15,1 20,2 23,2 22,0 16,7 20,1 12 6 19 11 SW 1017,1 25 0 0,0
18.06.2018 19:00:00 19,8 13,9 20,4 24,0 22,0 16,6 20,1 8 4 15 8 S 1017,2 23 0 0,0
18.06.2018 18:00:00 19,1 13,9 21,0 25,4 21,7 16,6 20,4 11 6 16 8 SE 1017,6 18 9 0,0
18.06.2018 17:00:00 19,2 13,2 23,2 26,2 21,4 16,6 20,2 11 6 18 10 SE 1017,9 14 34 0,0
18.06.2018 16:00:00 19,5 12,6 22,9 24,5 21,1 16,6 19,9 10 6 16 9 ESE 1018,0 21 25 0,0
18.06.2018 15:00:00 19,6 12,0 24,7 22,8 21,0 16,6 19,7 11 6 16 9 SE 1018,4 13 24 0,0
18.06.2018 14:00:00 18,1 11,3 19,4 21,9 21,0 16,6 19,4 8 4 16 9 SSE 1018,7 20 0 0,0
18.06.2018 13:00:00 17,9 10,4 18,0 22,6 20,8 16,6 19,3 4 2 14 7 SSE 1018,9 25 0 0,0
18.06.2018 12:00:00 18,7 10,2 20,5 24,1 20,4 16,6 19,3 10 5 16 8 WNW 1018,9 24 31 0,0
18.06.2018 11:00:00 18,0 10,7 20,4 23,2 20,0 16,6 19,2 12 7 20 11 W 1018,8 19 59 0,0
18.06.2018 10:00:00 18,2 11,2 21,7 21,0 19,8 16,6 18,9 16 9 26 14 W 1018,7 9 60 0,0
18.06.2018 09:00:00 17,1 11,5 17,9 20,0 19,7 16,6 18,6 20 11 25 13 W 1018,4 18 19 0,0
18.06.2018 08:00:00 17,7 12,0 19,4 19,2 19,8 16,6 18,6 18 10 23 13 WSW 1018,5 16 14 0,0
18.06.2018 07:00:00 17,0 12,9 17,2 18,5 19,9 16,6 18,5 17 9 21 12 WSW 1018,3 19 4 0,0
18.06.2018 06:00:00 16,5 12,6 15,7 18,4 20,1 16,6 18,5 18 10 23 12 WSW 1017,8 17 0 0,0
18.06.2018 05:00:00 16,8 13,2 16,0 18,6 20,3 16,6 18,6 17 9 23 12 WSW 1017,8 19 0 0,0
18.06.2018 04:00:00 17,2 12,3 16,4 18,8 20,6 16,6 18,7 17 9 22 12 W 1017,8 22 0 0,0
18.06.2018 03:00:00 17,5 12,0 17,1 19,1 20,8 16,6 18,8 18 10 23 12 W 1017,7 25 0 0,0
18.06.2018 02:00:00 17,4 11,4 17,1 19,3 21,1 16,6 18,9 18 10 25 13 WNW 1017,6 28 0 0,0
18.06.2018 01:00:00 17,8 11,2 17,1 19,6 21,4 16,6 19,0 17 9 25 13 W 1017,3 28 0 0,0
18.06.2018 00:00:00 17,6 11,0 17,2 20,1 21,8 16,6 18,9 18 10 24 13 WNW 1016,9 30 0 0,0
17.06.2018 23:00:00 17,2 11,2 16,8 20,7 22,1 16,6 18,9 18 10 22 12 WNW 1016,7 27 0 0,0
17.06.2018 22:00:00 17,3 12,8 16,9 21,7 22,4 16,6 19,0 15 8 35 19 NW 1016,6 24 0 0,0
17.06.2018 21:00:00 18,3 13,6 18,3 22,9 22,6 16,6 19,2 33 18 39 21 NW 1016,2 20 0 0,0
17.06.2018 20:00:00 19,7 14,4 20,0 24,5 22,7 16,6 19,2 19 10 30 16 NW 1015,5 24 40 0,0
17.06.2018 19:00:00 21,2 13,8 22,4 26,0 22,5 16,6 19,1 21 11 25 14 NW 1014,8 23 55 0,0
17.06.2018 18:00:00 20,7 13,3 22,9 27,6 22,2 16,5 19,2 4 2 16 9 N 1014,6 21 60 0,0
17.06.2018 17:00:00 21,6 15,1 26,2 27,4 21,7 16,5 19,0 13 7 19 10 N 1014,7 17 53 0,0
17.06.2018 16:00:00 20,8 15,3 23,0 26,1 21,3 16,5 19,0 8 5 11 6 N 1014,3 12 34 0,0
17.06.2018 15:00:00 20,6 14,7 23,7 24,3 21,0 16,5 18,9 10 5 22 12 WNW 1014,2 12 31 0,0
17.06.2018 14:00:00 19,0 15,1 20,4 23,4 20,8 16,5 18,7 14 8 19 10 W 1014,1 14 16 0,0
17.06.2018 13:00:00 19,4 15,2 23,3 23,9 20,5 16,5 18,7 12 7 23 12 W 1013,8 11 49 0,0
17.06.2018 12:00:00 18,1 15,1 20,1 22,6 20,2 16,5 18,4 21 12 25 14 W 1014,0 11 31 0,0
17.06.2018 11:00:00 19,4 15,6 22,6 20,9 20,1 16,5 18,2 9 5 22 12 NNW 1013,7 16 15 1,8
17.06.2018 10:00:00 18,3 14,7 19,0 21,1 20,0 16,5 18,2 23 12 32 17 NNW 1013,4 19 7 0,0
17.06.2018 09:00:00 19,7 15,7 22,4 20,6 19,9 16,5 18,2 22 12 35 19 NNW 1013,1 14 8 0,0
17.06.2018 08:00:00 19,2 14,1 20,4 19,7 19,9 16,5 18,1 26 14 34 19 WSW 1012,9 15 46 0,0
17.06.2018 07:00:00 18,8 14,9 19,9 19,0 20,0 16,5 18,0 14 8 23 12 S 1012,3 15 44 0,0
17.06.2018 06:00:00 18,8 15,4 19,5 18,7 20,2 16,5 18,0 9 5 20 11 S 1012,3 15 15 0,0
17.06.2018 05:00:00 18,5 15,1 16,8 18,9 20,3 16,5 18,1 8 5 16 9 S 1012,3 14 0 0,0
17.06.2018 04:00:00 18,4 15,9 17,8 19,0 20,5 16,5 18,2 14 7 20 11 SE 1012,5 14 0 0,0
17.06.2018 03:00:00 18,2 15,0 16,7 19,1 20,8 16,4 18,2 16 8 25 14 SE 1013,0 17 0 0,0
17.06.2018 02:00:00 18,0 14,4 16,8 19,4 21,0 16,4 18,2 16 9 29 16 SE 1013,2 20 0 0,0
17.06.2018 01:00:00 18,2 13,9 17,3 19,7 21,3 16,4 18,3 22 12 34 18 ESE 1013,5 20 0 0,0
17.06.2018 00:00:00 18,4 13,2 17,4 20,1 21,6 16,4 18,3 25 14 37 20 ESE 1014,0 23 0 0,0
16.06.2018 23:00:00 17,8 13,4 17,0 20,7 21,9 16,4 18,3 24 13 41 22 ESE 1014,2 22 0 0,0
16.06.2018 22:00:00 18,1 12,7 17,7 21,3 22,1 16,4 18,4 28 15 44 24 E 1014,2 24 0 0,0
16.06.2018 21:00:00 17,9 13,4 17,5 22,0 22,4 16,4 18,4 29 16 42 23 E 1014,3 26 0 0,0
16.06.2018 20:00:00 18,1 13,2 18,0 23,0 22,6 16,4 18,6 28 15 41 22 E 1014,6 23 12 0,0
16.06.2018 19:00:00 18,5 12,6 19,1 23,8 22,7 16,4 18,7 31 17 42 23 E 1014,8 15 4 0,0
16.06.2018 18:00:00 18,6 13,6 20,0 24,8 22,8 16,4 18,8 30 16 40 22 E 1015,2 15 3 0,0
16.06.2018 17:00:00 18,7 13,1 20,3 26,0 22,7 16,4 18,8 26 14 38 20 E 1015,8 25 7 0,0
16.06.2018 16:00:00 18,7 12,7 20,4 27,2 22,4 16,4 18,8 24 13 35 19 E 1016,1 16 15 0,0
16.06.2018 15:00:00 19,9 12,8 23,3 28,4 21,9 16,4 18,8 21 11 31 17 E 1016,5 7 60 0,0

tt = temperature
td = dewpoint
tt 5cm = temperature 5cm
tt -5cm = temperature -5cm
tt -20cm = temperature -20cm
tt -100cm = temperature -100cm
tw = water temperature
ff = wind speed
fx = gusts
dd = wind direction
ppp = reduced air pressure
vv = visibility
sd = sunshine duration
rr = precipitation

Next stations